JR5YHL-13 Weather Reports


Display with metric or nautical units.
time (UTC)temp
F
wind
direction
speed
MPH
gust
MPH
rain 1hr
in
rain 24hr
in
rain mn
in
humidity
%
barometer
mb
20260505085247 68 135 1.0 2.0 0.00 0.00 0.00 29 1019.2
20260505084250 69 135 0.0 5.0 0.00 0.00 0.00 29 1019.1
20260505083252 69 45 1.0 4.0 0.00 0.00 0.00 29 1019.2
20260505082254 70 135 2.0 5.0 0.00 0.00 0.00 28 1019.1
20260505081256 70 135 2.0 5.0 0.00 0.00 0.00 29 1019.0
20260505080259 71 180 1.0 4.0 0.00 0.00 0.00 28 1018.9
20260505075303 71 180 1.0 5.0 0.00 0.00 0.00 30 1018.8
20260505074303 71 135 3.0 10.0 0.00 0.00 0.00 29 1018.5
20260505073306 72 90 2.0 5.0 0.00 0.00 0.00 30 1018.5
20260505072308 71 90 4.0 8.0 0.00 0.00 0.00 30 1018.5
20260505071310 72 135 1.0 9.0 0.00 0.00 0.00 29 1018.6
20260505070313 72 270 4.0 8.0 0.00 0.00 0.00 29 1018.5
20260505065315 71 113 4.0 8.0 0.00 0.00 0.00 27 1018.4
20260505064317 72 90 2.0 11.0 0.00 0.00 0.00 30 1018.5
20260505063320 73 90 5.0 9.0 0.00 0.00 0.00 29 1018.3
20260505062322 73 45 4.0 13.0 0.00 0.00 0.00 29 1018.3
20260505061325 74 90 2.0 10.0 0.00 0.00 0.00 28 1018.3
20260505060327 74 45 4.0 14.0 0.00 0.00 0.00 29 1018.2
20260505055329 73 135 4.0 13.0 0.00 0.00 0.00 27 1018.3
20260505054331 75 90 4.0 11.0 0.00 0.00 0.00 28 1018.2
20260505053333 78 68 1.0 8.0 0.00 0.00 0.00 26 1018.1
20260505052336 79 225 2.0 8.0 0.00 0.00 0.00 25 1018.2
20260505051338 79 225 1.0 8.0 0.00 0.00 0.00 23 1018.2
20260505050340 79 225 3.0 11.0 0.00 0.00 0.00 24 1018.4
20260505041351 79 270 2.0 8.0 0.00 0.00 0.00 28 1019.1
20260505040354 77 135 2.0 8.0 0.00 0.00 0.00 28 1019.1
20260505035356 76 45 2.0 8.0 0.00 0.00 0.00 28 1019.2
20260505034359 77 90 2.0 8.0 0.00 0.00 0.00 28 1019.3
20260505033401 76 45 0.0 9.0 0.00 0.00 0.00 27 1019.3
20260505032403 74 90 2.0 12.0 0.00 0.00 0.00 29 1019.6
20260505031406 73 90 4.0 10.0 0.00 0.00 0.00 29 1019.6
20260505030408 74 90 3.0 11.0 0.00 0.00 0.00 26 1019.6
20260505025410 73 158 3.0 7.0 0.00 0.00 0.00 25 1019.7
20260505024413 76 90 3.0 8.0 0.00 0.00 0.00 24 1019.7
20260505023415 78 135 4.0 11.0 0.00 0.00 0.00 22 1019.9
20260505022417 76 180 2.0 11.0 0.00 0.00 0.00 20 1019.8
20260505021420 75 45 4.0 11.0 0.00 0.00 0.00 21 1019.8
20260505020422 75 90 4.0 9.0 0.00 0.00 0.00 22 1019.9
20260505015424 77 135 4.0 11.0 0.00 0.00 0.00 18 1020.0
20260505014426 78 0 1.0 7.0 0.00 0.00 0.00 17 1020.1
20260505013429 77 90 3.0 8.0 0.00 0.00 0.00 19 1020.1
20260505012431 78 0 1.0 3.0 0.00 0.00 0.00 21 1020.1
20260505011433 76 90 2.0 7.0 0.00 0.00 0.00 22 1020.2
20260505010436 74 45 0.0 5.0 0.00 0.00 0.00 24 1020.3
20260505005438 75 270 1.0 5.0 0.00 0.00 0.00 24 1020.2
20260505004440 74 0 1.0 6.0 0.00 0.00 0.00 29 1020.3
20260505003442 73 90 0.0 3.0 0.00 0.00 0.00 34 1020.3
20260505002445 71 90 0.0 2.0 0.00 0.00 0.00 37 1020.3
20260505001447 70 270 0.0 2.0 0.00 0.00 0.00 37 1020.3
20260505000449 68 270 2.0 4.0 0.00 0.00 0.00 44 1020.4
20260504235451 67 270 1.0 5.0 0.00 0.00 0.00 48 1020.5
20260504234454 65 203 0.0 5.0 0.00 0.00 0.00 55 1020.6
20260504233456 63 270 4.0 8.0 0.00 0.00 0.00 59 1020.4
20260504232459 61 315 3.0 8.0 0.00 0.00 0.00 64 1020.5
20260504231501 59 225 4.0 8.0 0.00 0.00 0.00 68 1020.5
20260504230503 59 315 2.0 11.0 0.00 0.00 0.00 69 1020.6
20260504225506 58 270 4.0 8.0 0.00 0.00 0.00 73 1020.7
20260504224508 57 225 3.0 9.0 0.00 0.00 0.00 77 1020.6
20260504223510 55 270 4.0 8.0 0.00 0.00 0.00 80 1020.7
20260504222512 55 225 3.0 8.0 0.00 0.00 0.00 81 1020.8
20260504221515 55 225 3.0 7.0 0.00 0.00 0.00 83 1020.9
20260504220517 54 225 3.0 6.0 0.00 0.00 0.00 85 1020.7
20260504215519 54 225 3.0 7.0 0.00 0.00 0.00 88 1020.7
20260504214521 53 270 3.0 6.0 0.00 0.00 0.00 92 1020.7
20260504213524 52 270 2.0 6.0 0.00 0.00 0.00 96 1020.9
20260504212526 51 270 3.0 7.0 0.00 0.00 0.00 99 1020.9
20260504211528 51 270 2.0 5.0 0.00 0.00 0.00 99 1020.8
20260504210530 50 315 2.0 4.0 0.00 0.00 0.00 99 1020.7
20260504205533 49 0 0.0 2.0 0.00 0.00 0.00 99 1020.5
20260504204535 49 315 0.0 1.0 0.00 0.00 0.00 99 1020.4
20260504203537 49 315 0.0 5.0 0.00 0.00 0.00 99 1020.4
20260504202540 49 270 2.0 6.0 0.00 0.00 0.00 99 1020.4
20260504201542 49 225 2.0 5.0 0.00 0.00 0.00 99 1020.2
20260504200544 49 315 0.0 2.0 0.00 0.00 0.00 99 1020.2
20260504195547 49 0 0.0 2.0 0.00 0.00 0.00 99 1020.0
20260504194549 49 225 0.0 1.0 0.00 0.00 0.00 99 1019.9
20260504193552 49 225 0.0 1.0 0.00 0.00 0.00 99 1019.9
20260504192554 49 270 0.0 1.0 0.00 0.00 0.00 99 1019.8
20260504191557 49 0 0.0 2.0 0.00 0.00 0.00 99 1019.7
20260504190559 49 225 0.0 1.0 0.00 0.00 0.00 99 1019.7
20260504185602 49 45 0.0 2.0 0.00 0.00 0.00 99 1019.6
20260504184604 49 225 0.0 0.0 0.00 0.00 0.00 99 1019.4
20260504183606 49 225 0.0 0.0 0.00 0.00 0.00 99 1018.8
20260504182609 50 225 0.0 0.0 0.00 0.00 0.00 99 1018.7
20260504181611 50 225 0.0 0.0 0.00 0.00 0.00 99 1018.6
20260504180613 50 180 0.0 0.0 0.00 0.00 0.00 99 1018.4
20260504175616 50 225 0.0 0.0 0.00 0.00 0.00 99 1018.2
20260504174618 50 225 0.0 0.0 0.00 0.00 0.00 99 1018.2
20260504173620 50 45 0.0 2.0 0.00 0.00 0.00 99 1018.1
20260504172623 50 135 0.0 2.0 0.00 0.00 0.00 99 1018.0
20260504171625 51 135 0.0 1.0 0.00 0.00 0.00 99 1018.0
20260504170628 51 225 0.0 1.0 0.00 0.00 0.00 99 1017.9
20260504150656 55 0 0.0 1.0 0.00 0.00 0.00 87 1017.0
20260504140709 56 45 0.0 1.0 0.00 0.00 0.00 83 1016.7
20260504130723 57 180 0.0 1.0 0.00 0.00 0.00 71 1016.3